STARLINK-35286 (65803 NORAD) Tracking and Keplerian Element Data

This shows tracking and keplerian element data for the satellite.

Feedback or suggestion? Click here.




ElementValue
Catalog65803
NameSTARLINK-35286
Epoch Orbit1295
Epoch Day353.85596959
Epoch Year2025
RAAN214.2086
Inclination97.6011
Eccentricity0.0002166
Argument of Perigee75.9617
Mean Anonmoly284.1851
Mean Motion15.05649311
Decay Rate1.979E-05
L11 65803U 25218N 25353.85596959 .00001979 00000+0 14132-3 0 9993
L22 65803 97.6011 214.2086 0002166 75.9617 284.1851 15.05649311 12952



Live tracking and technical data element details for STARLINK-35286 (NORAD 65803). STARLINK-35286 can be tracked NOW for your location showing map with azimuth and elevation plus other details from your city location.







IsCatalogInMostPopularTable: catalog: 65803, numindb: 4
Update: records affected: 1



GetName: 65803 STARLINK-35286

Hit Count: updated at: Tue, 10 Feb 2026 02:30:01 GMT